This is the latest recevied weather packets stored in our database for station/object SQ7FJB-2. If no packets are shown the sender has not sent any weather packets the latest 10 day(s).
| Time | Temp. | Humidity | Pressure | Rain* | Wind** | Luminosity | Snow |
|---|---|---|---|---|---|---|---|
| 1777891789 | 24.44° C | 35% | 1012.4 hPa | 0 mm | - | - | - |
| 1777891189 | 24.44° C | 35% | 1012.5 hPa | 0 mm | - | - | - |
| 1777890577 | 24.44° C | 33% | 1012.6 hPa | 0 mm | - | - | - |
| 1777889977 | 24.44° C | 34% | 1012.7 hPa | 0 mm | - | - | - |
| 1777889376 | 23.89° C | 35% | 1012.8 hPa | 0 mm | - | - | - |
| 1777888765 | 23.89° C | 34% | 1013 hPa | 0 mm | - | - | - |
| 1777888164 | 23.89° C | 34% | 1013 hPa | 0 mm | - | - | - |
| 1777887564 | 23.33° C | 36% | 1013 hPa | 0 mm | - | - | - |
| 1777886964 | 23.33° C | 36% | 1013.1 hPa | 0 mm | - | - | - |
| 1777886353 | 23.33° C | 36% | 1013.2 hPa | 0 mm | - | - | - |
| 1777885739 | 22.78° C | 37% | 1013.2 hPa | 0 mm | - | - | - |
| 1777885140 | 22.78° C | 36% | 1013.2 hPa | 0 mm | - | - | - |
| 1777884528 | 22.22° C | 37% | 1013.2 hPa | 0 mm | - | - | - |
| 1777883927 | 21.67° C | 39% | 1013.3 hPa | 0 mm | - | - | - |
| 1777883327 | 21.67° C | 36% | 1013.4 hPa | 0 mm | - | - | - |
| 1777882727 | 21.67° C | 38% | 1013.3 hPa | 0 mm | - | - | - |
| 1777882114 | 20.56° C | 40% | 1013.3 hPa | 0 mm | - | - | - |
| 1777881502 | 20.56° C | 40% | 1013.3 hPa | 0 mm | - | - | - |
| 1777880902 | 20.56° C | 38% | 1013.4 hPa | 0 mm | - | - | - |
| 1777880290 | 20.56° C | 39% | 1013.3 hPa | 0 mm | - | - | - |
| 1777879690 | 20° C | 39% | 1013.3 hPa | 0 mm | - | - | - |
| 1777879090 | 19.44° C | 40% | 1013.3 hPa | 0 mm | - | - | - |
| 1777878489 | 20° C | 41% | 1013.3 hPa | 0 mm | - | - | - |
| 1777877877 | 18.89° C | 42% | 1013.2 hPa | 0 mm | - | - | - |
| 1777877264 | 18.33° C | 42% | 1013.2 hPa | 0 mm | - | - | - |
* Rain latest hour (hover to see other rain measurements)
** Current wind speed in m/s (hover to see current wind gust speed)